Vertical_Velocity
1 0 1 0 -0 -1 -1 -1 -1 0 -1 -0 1 0 0 -1 -1 2 -4 0 -2 2 0 -0 -7 -9 -0 -4 -2 -4 -5 -1 2 -3 -3 -2 -4 -2
-0 0 1 1 0 1 -1 -2 -2 -1 -3 -4 -2 -3 -3 0 -1 -2 1 -2 -5 -7 -3 -3 -4 -4 -2 2 4 1 -0 -2 4 2 1 -0 1 0
-0 0 0 1 1 0 1 0 0 -0 0 -1 -2 -1 -1 -5 -4 -3 -3 1 5 -1 -5 -3 0 4 2 3 -4 1 1 -2 2 -3 -3 -0 -3 -1
-1 -0 1 0 -0 -1 -1 -1 -1 -0 0 0 -2 -2 -1 -0 -0 -2 -4 -4 -4 0 5 3 1 -4 -4 -6 -4 -3 -8 -3 -4 -1 -5 -2 -0 -2
-1 0 1 1 1 1 2 2 1 -1 -1 0 2 1 -1 -3 -0 -1 -2 -2 -3 -2 -2 -1 -2 -1 -1 -3 -4 -5 -4 -3 -2 -2 -0 -1 -4 -6
-1 -2 -1 0 0 0 0 -0 0 1 -0 -0 -2 -1 0 2 -1 -1 -1 -1 -2 -3 -3 -4 -2 -1 -1 0 -2 -2 -3 -4 -4 -3 -2 -1 -0 1
0 -0 -1 -2 -2 -1 1 1 -0 0 -0 1 2 1 1 -1 0 0 -1 1 1 1 -2 -2 -2 -1 -1 -1 -2 -1 -0 1 0 -1 0 0 1 -0
3 1 1 1 -2 -2 -3 -5 -3 -2 -2 -0 0 2 1 1 -0 0 1 -0 -1 0 1 -1 -2 -2 -2 -0 -0 0 0 2 1 0 1 -1 -1 -1
-2 -1 1 4 3 3 1 0 0 -2 -2 -2 -1 0 4 3 1 0 1 1 1 2 1 1 -1 -1 -0 -0 -0 -1 0 0 -1 1 0 -0 -0 -1
1 2 1 -2 -6 -4 -1 4 3 1 1 -0 -3 2 -2 -1 3 4 0 2 0 0 1 2 1 0 -1 -0 -1 -3 -4 -4 -3 -3 -2 -1 -0 -0
2 2 -1 -2 3 0 -1 -1 -3 -0 4 0 1 -1 0 2 -3 -1 2 1 0 -0 1 -4 0 -1 -3 -2 -2 -2 -2 -2 -2 -2 -3 -1 -0 -2
3 1 -0 4 4 -0 -3 -0 -1 8 -4 -0 2 4 -2 3 4 1 -1 3 0 -3 0 -2 -0 1 0 -0 -1 0 -3 -2 2 -1 -2 -1 -1 -3
1 5 3 1 5 2 0 -0 4 -3 -0 1 1 -1 3 2 2 -2 -1 1 3 1 3 -1 1 0 1 -4 -3 -3 -2 -1 -5 0 -1 -3 -2 -4
5 5 6 1 1 4 0 4 1 -0 -2 -1 -1 3 2 -0 -2 1 1 -1 -1 -1 0 1 -1 -1 -1 1 -1 -1 -5 -2 0 -3 0 -3 -3 -3
4 4 1 -3 -2 -0 10 6 1 -6 2 -3 -1 1 -2 -5 1 4 -2 1 0 -1 -2 2 -2 -2 -0 -2 -0 1 -2 8 -0 -2 2 0 0 -1
-2 2 4 3 -6 -1 2 4 2 6 3 2 5 1 -1 0 -4 -1 -2 2 1 -0 -2 -1 1 0 1 -3 -1 -1 -3 -0 1 0 -2 3 3 -5
-4 4 5 4 -1 4 -1 -2 3 1 6 8 4 2 -0 0 1 -1 -0 -1 -5 -2 1 0 1 -1 -1 -2 0 -6 -2 1 -3 0 -2 0 5 -3
-3 -1 4 0 -1 -2 -2 1 -2 1 1 9 2 1 1 -0 0 -2 1 -1 -4 -5 -1 0 2 2 1 -1 -1 0 -2 -0 -1 -1 -4 -9 9 -2
-2 -2 -3 3 4 8 7 2 2 15 15 16 5 -2 4 3 -0 8 0 2 1 -3 2 3 1 1 -0 -2 -4 -0 -3 -1 -2 1 -5 -4 -5 2
0 -2 0 4 5 4 1 4 4 4 4 2 5 6 3 5 -1 1 1 3 3 4 3 0 1 0 0 1 -3 4 -9 -3 -2 -0 -1 3 -5 -2
-1 0 1 3 3 3 2 4 3 3 2 2 2 3 1 2 6 6 3 2 2 1 0 2 -1 2 0 -1 -3 2 3 -5 -5 -5 0 2 -0 8
1 1 1 -3 -3 -4 -3 4 3 4 1 -2 0 1 -1 -0 1 5 0 -1 1 1 -1 -2 0 4 0 1 -1 -4 5 3 -6 -7 -8 -4 -5 -4
-1 -1 -1 -1 1 1 -1 -3 0 0 2 1 3 -2 0 -1 2 2 0 0 -1 -0 1 1 1 2 -0 -1 -3 -1 -0 -3 4 5 -8 -4 -2 -7
Height
3048 3046 3044 3042 3039 3036 3034 3032 3029 3027 3027 3025 3023 3020 3018 3015 3012 3010 3011 3010 3009 3008 3008 3008 3008 3010 3013 3014 3015 3017 3016 3016 3017 3019 3019 3019 3018 3019
3044 3042 3040 3038 3035 3033 3031 3029 3026 3023 3022 3021 3019 3017 3015 3012 3010 3008 3007 3006 3007 3007 3006 3007 3007 3008 3009 3009 3009 3009 3010 3011 3011 3010 3009 3009 3009 3009
3040 3038 3036 3034 3031 3029 3027 3025 3023 3020 3019 3017 3015 3014 3012 3011 3008 3005 3003 3003 3002 3001 3001 3002 3003 3005 3005 3006 3005 3004 3004 3004 3003 3002 3002 3003 3003 3002
3036 3034 3032 3030 3028 3026 3024 3022 3020 3017 3016 3014 3012 3010 3008 3005 3003 3002 2999 2997 2997 2998 2998 2998 2999 2999 2998 2998 2998 2998 2998 2997 2996 2996 2996 2996 2996 2996
3030 3029 3027 3025 3023 3022 3020 3018 3016 3014 3011 3009 3007 3005 3003 3001 2999 2997 2996 2994 2993 2993 2993 2994 2993 2993 2992 2991 2991 2990 2990 2990 2990 2990 2990 2989 2989 2989
3023 3022 3020 3019 3018 3016 3014 3012 3011 3009 3007 3005 3003 3001 2998 2997 2995 2994 2992 2991 2991 2990 2989 2988 2988 2987 2986 2986 2985 2985 2985 2984 2983 2982 2981 2980 2979 2978
3017 3014 3012 3011 3010 3009 3008 3006 3004 3003 3001 2999 2998 2997 2995 2993 2992 2991 2989 2988 2987 2986 2986 2985 2984 2983 2982 2981 2980 2979 2979 2978 2977 2975 2974 2973 2972 2971
3008 3006 3006 3005 3003 3002 3001 2999 2998 2996 2995 2994 2992 2991 2990 2989 2988 2987 2985 2983 2982 2981 2979 2979 2979 2977 2976 2975 2973 2972 2971 2970 2968 2967 2965 2963 2961 2960
3000 2999 2997 2996 2995 2993 2992 2991 2990 2989 2988 2987 2986 2984 2984 2983 2982 2980 2979 2978 2977 2976 2974 2973 2972 2971 2969 2968 2966 2965 2963 2961 2960 2957 2955 2954 2953 2952
2991 2989 2988 2988 2986 2985 2984 2983 2982 2982 2980 2979 2978 2977 2976 2975 2974 2974 2973 2971 2970 2969 2968 2967 2965 2964 2963 2961 2960 2957 2955 2953 2951 2949 2947 2946 2945 2944
2983 2980 2979 2979 2977 2975 2975 2975 2974 2973 2972 2971 2970 2970 2969 2969 2968 2968 2966 2965 2964 2963 2961 2961 2959 2957 2957 2955 2952 2950 2947 2946 2945 2943 2940 2938 2937 2936
2972 2971 2970 2970 2967 2965 2965 2964 2965 2964 2963 2963 2963 2962 2962 2961 2961 2960 2960 2959 2958 2957 2956 2955 2953 2951 2950 2948 2945 2942 2939 2938 2937 2936 2933 2931 2929 2928
2959 2960 2959 2958 2956 2955 2954 2956 2956 2954 2955 2954 2954 2954 2954 2953 2953 2952 2952 2951 2950 2950 2949 2948 2947 2945 2943 2940 2938 2935 2933 2931 2930 2928 2927 2925 2921 2919
2948 2947 2947 2945 2943 2944 2943 2945 2945 2944 2945 2946 2946 2947 2945 2944 2944 2944 2944 2943 2943 2944 2943 2942 2941 2939 2938 2935 2932 2928 2926 2923 2923 2921 2920 2917 2913 2910
2936 2934 2933 2932 2931 2932 2933 2934 2934 2935 2935 2935 2937 2937 2936 2936 2937 2937 2937 2936 2937 2937 2937 2936 2935 2933 2931 2929 2927 2923 2922 2919 2916 2915 2913 2910 2906 2901
2922 2922 2922 2921 2920 2921 2921 2923 2923 2925 2925 2926 2927 2926 2927 2928 2928 2928 2929 2928 2929 2929 2929 2929 2927 2926 2925 2923 2920 2918 2914 2912 2909 2907 2906 2903 2898 2892
2911 2911 2911 2910 2909 2908 2909 2910 2911 2912 2913 2915 2914 2914 2916 2917 2918 2919 2919 2920 2920 2920 2921 2921 2919 2919 2918 2916 2914 2910 2908 2905 2901 2899 2897 2896 2891 2883
2901 2901 2900 2898 2897 2897 2897 2898 2899 2900 2901 2901 2901 2902 2904 2906 2906 2908 2909 2908 2909 2910 2911 2912 2912 2912 2912 2910 2907 2904 2900 2898 2895 2892 2889 2888 2887 2877
2893 2891 2891 2889 2889 2887 2887 2888 2889 2890 2889 2890 2891 2893 2894 2895 2896 2897 2898 2899 2899 2899 2901 2902 2903 2904 2903 2902 2900 2896 2895 2892 2890 2887 2883 2880 2877 2873
2884 2882 2882 2880 2878 2878 2877 2877 2878 2878 2879 2880 2881 2882 2884 2885 2886 2888 2889 2889 2890 2892 2893 2893 2895 2896 2896 2895 2894 2890 2886 2885 2883 2881 2877 2874 2869 2865
2877 2874 2873 2871 2870 2869 2868 2868 2868 2867 2868 2868 2870 2872 2874 2875 2878 2879 2880 2881 2882 2883 2884 2885 2887 2888 2888 2888 2886 2885 2880 2876 2875 2873 2870 2867 2863 2861
2871 2869 2866 2865 2863 2862 2861 2861 2860 2860 2860 2861 2862 2863 2865 2867 2868 2870 2871 2873 2874 2875 2876 2878 2879 2881 2882 2881 2879 2878 2876 2872 2867 2864 2861 2859 2856 2854
2866 2863 2860 2859 2857 2856 2855 2854 2854 2854 2854 2854 2853 2855 2857 2858 2860 2862 2863 2866 2867 2868 2870 2871 2873 2875 2875 2874 2873 2872 2870 2868 2865 2861 2856 2853 2851 2848